This is the latest recevied weather packets stored in our database for station/object KB4RFE. If no packets are shown the sender has not sent any weather packets the latest 10 day(s).
| Time | Temp. | Humidity | Pressure | Rain* | Wind** | Luminosity | Snow |
|---|---|---|---|---|---|---|---|
| 1777983300 | 18.33° C | 81% | 1020.7 hPa | 0 mm | - | 42 W/m² | - |
| 1777982996 | 17.22° C | 89% | 1020.8 hPa | 0 mm | - | 41 W/m² | - |
| 1777982693 | 16.67° C | 91% | 1020.6 hPa | 0 mm | - | 32 W/m² | - |
| 1777982392 | 16.67° C | 92% | 1020.6 hPa | 0 mm | - | 42 W/m² | - |
| 1777982089 | 16.11° C | 92% | 1020.5 hPa | 0 mm | - | 37 W/m² | - |
| 1777981787 | 15.56° C | 92% | 1020.2 hPa | 0.51 mm | - | 38 W/m² | - |
| 1777981483 | 15.56° C | 93% | 1020.4 hPa | 0.51 mm | - | 35 W/m² | - |
| 1777981180 | 15.56° C | 93% | 1020.3 hPa | 0 mm | - | 34 W/m² | - |
| 1777980876 | 15° C | 93% | 1020.3 hPa | 0 mm | - | 40 W/m² | - |
| 1777980572 | 15° C | 94% | 1020.4 hPa | 0 mm | - | 31 W/m² | - |
| 1777980270 | 14.44° C | 94% | 1020.1 hPa | 0 mm | - | 29 W/m² | - |
| 1777979966 | 14.44° C | 94% | 1020.1 hPa | 0 mm | - | 27 W/m² | - |
| 1777979660 | 14.44° C | 94% | 1020 hPa | 0 mm | - | 25 W/m² | - |
| 1777979357 | 13.89° C | 94% | 1020 hPa | 0 mm | - | 23 W/m² | - |
| 1777979054 | 13.89° C | 94% | 1020 hPa | 0 mm | - | 20 W/m² | - |
| 1777978751 | 13.89° C | 94% | 1019.9 hPa | 0 mm | - | 18 W/m² | - |
| 1777978447 | 13.89° C | 93% | 1019.8 hPa | 0 mm | - | 15 W/m² | - |
| 1777978144 | 13.89° C | 93% | 1019.9 hPa | 0 mm | - | 11 W/m² | - |
| 1777977841 | 14.44° C | 93% | 1019.9 hPa | 0 mm | - | 8 W/m² | - |
| 1777977536 | 14.44° C | 93% | 1019.7 hPa | 0 mm | - | 6 W/m² | - |
| 1777977235 | 14.44° C | 93% | 1019.7 hPa | 0 mm | - | 4 W/m² | - |
| 1777976932 | 14.44° C | 92% | 1019.6 hPa | 0 mm | - | 2 W/m² | - |
| 1777976629 | 14.44° C | 92% | 1019.5 hPa | 0 mm | - | 1 W/m² | - |
| 1777976325 | 14.44° C | 92% | 1019.5 hPa | 0 mm | - | 0 W/m² | - |
| 1777976019 | 14.44° C | 92% | 1019.6 hPa | 0 mm | - | 0 W/m² | - |
* Rain latest hour (hover to see other rain measurements)
** Current wind speed in m/s (hover to see current wind gust speed)